Miscellaneous Local Product
Issued by NWS North Platte, NE

Home | Current Version | Previous Version | Text Only | Print | Product List | Glossary On
Versions: 1 2 3 4 5 6 7 8 9 10 11 12 13 14 15 16 17 18 19 20 21 22 23 24 25 26 27 28 29 30 31 32 33 34 35 36 37 38 39 40 41 42 43 44 45 46 47 48 49 50
000
AXUS43 KLBF 210310
MISLBF


WESTERN AND NORTH CENTRAL NEBRASKA HOURLY WEATHER ROUNDUP
NATIONAL WEATHER SERVICE NORTH PLATTE NE
900 PM CST FRI JAN 20 2017

NOTE: "FAIR" INDICATES FEW OR NO CLOUDS BELOW 12,000 FEET WITH NO
SIGNIFICANT WEATHER AND/OR OBSTRUCTIONS TO VISIBILITY.

NOTE: STATIONS NOT REPORTING VARIABLES SUCH AS SKY/WEATHER OR
PRESSURE ARE PROVIDED BY RAWS AND APRS NETWORKS AND ARE NOT UNDER
NATIONAL WEATHER SERVICE QUALITY CONTROL.

...OBSERVATIONS IN AND NEAR THE EASTERN PANHANDLE OF NEBRASKA...

CITY           SKY/WX    TMP DP  RH WIND       PRES   REMARKS
PINE RIDGE     CLOUDY    36  34  92 W6        29.37R WCI  31
CHADRON        CLOUDY    36  32  85 W16       29.38S WCI  26
ALLIANCE       MIX PCPN  34  33  96 W9        29.39R WCI  27
SIDNEY         CLOUDY    35  31  85 NW9       29.42S WCI  28
CRESCENT LAKE    N/A     34  34 100 W8          N/A  WCI  27
$$

...OBSERVATIONS IN NORTHERN NEBRASKA AND FAR SOUTHERN SOUTH DAKOTA...

CITY           SKY/WX    TMP DP  RH WIND       PRES   REMARKS
WINNER         CLOUDY    33  29  85 W3        29.33F
VALENTINE      CLOUDY    37  30  75 W7        29.35S WCI  32
THEDFORD       CLOUDY    34  32  93 CALM      29.37S
AINSWORTH      MOCLDY    32  30  92 CALM      29.35S
O`NEILL        CLOUDY    40  40  99 S6        29.38S FOG
ORD            FOG       38  36  92 S6        29.38S VSB 1/4 WCI  33
BROKEN BOW     FOG       34  33  96 CALM      29.38R VSB 1/2
VALENTINE NWR    N/A     35  29  78 CALM        N/A
BUTTE            N/A     37  35  92 S10         N/A  WCI  30
HALSEY           N/A     34  30  86 CALM        N/A
SARGENT          N/A     36  27  68 CALM        N/A
CHAMBERS         N/A     39  38  97 CALM        N/A
EWING            N/A     38  37  97 CALM        N/A
$$

...OBSERVATIONS IN SOUTHWEST NEBRASKA AND FAR NORTHEAST COLORADO...

CITY           SKY/WX    TMP DP  RH WIND       PRES   REMARKS
WRAY           CLOUDY    36  32  87 W7        29.44R WCI  30
HOLYOKE        FAIR      37  34  87 NW12G17   29.43R WCI  30
IMPERIAL       CLOUDY    37  32  82 W9        29.42R WCI  30
OGALLALA       CLOUDY    36  33  90 NW6       29.40S WCI  31
NORTH PLATTE   CLOUDY    35  32  88 CALM      29.39R
MCCOOK         CLOUDY    38  36  92 NW6       29.40S WCI  33
LEXINGTON      CLOUDY    36  34  92 SW6       29.39F WCI  31
STAPLETON        N/A     33  30  90 CALM        N/A
GOTHENBURG       N/A     40  33  75 SW3         N/A
CALLAWAY         N/A     35  33  92 CALM        N/A
$$

...OBSERVATIONS IN CENTRAL LINCOLN COUNTY AREA...

CITY           SKY/WX    TMP DP  RH WIND       PRES   REMARKS
N.P. AIRPORT   CLOUDY    35  32  88 CALM      29.39R
N.P. DOWNTOWN    N/A     37  33  87 CALM        N/A
N.P. SOUTHEAST   N/A     37  33  84 CALM        N/A
N.P. HILLCREST   N/A     36  33  90 CALM        N/A
$$

...SOME OBSERVATIONS FROM AROUND THE REGION...

CITY           SKY/WX    TMP DP  RH WIND       PRES   REMARKS
LARAMIE        CLOUDY    22  11  62 W3        29.42S
CHEYENNE       CLOUDY    28  17  63 NW6       29.41S WCI  22
DENVER         PTCLDY    29  25  85 S14       29.42R WCI  18
AKRON          CLEAR     31  24  75 NW8       29.43S WCI  23
SCOTTSBLUFF    CLOUDY    35  32  88 NW7       29.40F WCI  29
RAPID CITY     CLOUDY    36  31  82 NW14      29.34S WCI  27
BISMARCK       CLOUDY    32  30  92 NW3       29.33F FOG
PIERRE         FOG       22  20  92 SW6       29.33S VSB 1/2 WCI  14
SIOUX FALLS    FOG       39  39 100 S10       29.43S VSB 1   WCI  32
OMAHA          CLOUDY    41  38  89 SE8       29.45S
GRAND ISLAND   CLOUDY    38  38 100 S5        29.40F FOG     WCI  34
KANSAS CITY    MOCLDY    46  43  89 SE9       29.45F
WICHITA        PTCLDY    34  34 100 CALM      29.44S
OKLAHOMA CITY  PTCLDY    54  35  48 SW12      29.54R
DALLAS         PTCLDY    58  39  49 S6        29.63R
AMARILLO       CLEAR     48  26  42 SW21      29.58R
DODGE CITY     CLEAR     37  33  85 W14       29.49R WCI  28
HAYS           CLOUDY    41  38  89 W6        29.44R
GOODLAND       PTCLDY    36  34  92 W13       29.44R WCI  27
$$




USA.gov is the U.S. government's official web portal to all federal, state and local government web resources and services.